Back to catalog

COSMOS 1367

LostNavigationHEO
NORAD 13205·PAYLOAD·🇷🇺 Russia

Launched May 20, 1982 from Plesetsk Cosmodrome

Loading…

Next Passes (next 24 hours)

TLE

StaleSource: Space-Track

Epoch: Oct 31, 2025, 17:49 UTC

1 13205U 82045A   25304.74244421  .00000044  00000-0  00000-0 0  9990
2 13205  71.9842  75.1735 4968098 329.5011   9.1373  2.00464983318233

Track COSMOS 1367 in real time with AllMySat

Download on the App Store